Date String (YYYY-MM-DD hh:mm:ss) UTC,Instrument flags,Ambient pressure (hPa),Sample flow (lpm),Bypass flow (lpm),Sample temperature (°C),Ambient temperature (°C),ASC tube jacket temperature (°C),LED temperature (°C),Box temperature (°C),Sample RH (%),Span deviation,Mass concentration (μg/m³),Mass concentration (μg/m³),Mass concentration (μg/m³)
DateTimeUTC,F1_M11,P_M11,Q1_M11,Q2_M11,T1_M11,T2_M11,T3_M11,T4_M11,T5_M11,U1_M11,ZSPAN_M11,X0_M11,X2_M11,X1_M11
2022-10-06 07:00:00,,0834.6,4.99,0.00,29.4,27.7,00.0,38.2,31.1,18.1,0000.0,0009.68,0005.40,0005.07
2022-10-06 07:01:00,,0834.6,5.00,0.00,29.4,27.7,00.0,38.2,31.1,18.1,0000.0,0009.73,0005.43,0005.07
2022-10-06 07:02:00,,0834.6,5.00,0.00,29.4,27.7,00.0,38.2,31.1,18.1,0000.0,0009.70,0005.43,0005.07
2022-10-06 07:03:00,,0834.6,5.00,0.00,29.4,27.7,00.0,38.2,31.1,18.2,0000.0,0009.71,0005.44,0005.08
2022-10-06 07:04:00,,0834.6,5.01,0.00,29.4,27.7,00.0,38.2,31.1,18.2,0000.0,0009.76,0005.46,0005.08
2022-10-06 07:05:00,,0834.6,4.99,0.00,29.4,27.7,00.0,38.2,31.1,18.2,0000.0,0009.74,0005.46,0005.07
2022-10-06 07:06:00,,0834.6,5.01,0.00,29.4,27.7,00.0,38.2,31.1,18.2,0000.0,0009.74,0005.47,0005.07
2022-10-06 07:07:00,,0834.6,4.98,0.00,29.4,27.6,00.0,38.2,31.1,18.2,0000.0,0009.40,0005.49,0005.07
2022-10-06 07:08:00,,0834.6,5.01,0.00,29.3,27.6,00.0,38.2,31.1,18.2,0000.0,0008.96,0005.48,0005.05
2022-10-06 07:09:00,,0834.6,5.01,0.00,29.3,27.6,00.0,38.2,31.1,18.2,0000.0,0009.04,0005.49,0005.05
2022-10-06 07:10:00,,0834.6,4.99,0.00,29.3,27.6,00.0,38.2,31.1,18.2,0000.0,0008.77,0005.49,0005.04
2022-10-06 07:11:00,,0834.6,5.01,0.00,29.3,27.6,00.0,38.2,31.0,18.2,0000.0,0008.72,0005.46,0005.02
2022-10-06 07:12:00,,0834.6,5.00,0.00,29.3,27.6,00.0,38.1,31.0,18.2,0000.0,0008.80,0005.43,0005.02
2022-10-06 07:13:00,,0834.6,4.99,0.00,29.3,27.6,00.0,38.1,31.0,18.2,0000.0,0008.92,0005.46,0005.00
2022-10-06 07:14:00,,0834.5,5.01,0.00,29.3,27.6,00.0,38.1,31.0,18.3,0000.0,0008.79,0005.44,0004.99
2022-10-06 07:15:00,,0834.5,5.00,0.00,29.3,27.6,00.0,38.1,31.0,18.3,0000.0,0008.83,0005.42,0004.98
2022-10-06 07:16:00,,0834.5,4.99,0.00,29.3,27.6,00.0,38.1,31.0,18.3,0000.0,0009.21,0005.40,0004.97
2022-10-06 07:17:00,,0834.5,5.00,0.00,29.3,27.6,00.0,38.1,31.0,18.2,0000.0,0009.17,0005.36,0004.96
2022-10-06 07:18:00,,0834.5,5.00,0.00,29.3,27.6,00.0,38.1,31.0,18.2,0000.0,0009.12,0005.37,0004.96
2022-10-06 07:19:00,,0834.5,4.99,0.00,29.3,27.6,00.0,38.1,31.0,18.2,0000.0,0009.29,0005.39,0004.96
2022-10-06 07:20:00,,0834.5,5.01,0.00,29.3,27.6,00.0,38.1,31.0,18.2,0000.0,0009.29,0005.40,0004.96
2022-10-06 07:21:00,,0834.5,5.01,0.00,29.3,27.5,00.0,38.1,31.0,18.2,0000.0,0009.20,0005.35,0004.96
2022-10-06 07:22:00,,0834.5,4.99,0.00,29.3,27.5,00.0,38.1,31.0,18.2,0000.0,0009.10,0005.33,0004.96
2022-10-06 07:23:00,,0834.6,5.01,0.00,29.2,27.5,00.0,38.1,31.0,18.2,0000.0,0009.11,0005.35,0004.96
2022-10-06 07:24:00,,0834.6,5.00,0.00,29.2,27.5,00.0,38.1,30.9,18.2,0000.0,0009.58,0005.32,0004.96
2022-10-06 07:25:00,,0834.5,5.00,0.00,29.2,27.5,00.0,38.0,30.9,18.2,0000.0,0010.19,0005.30,0004.95
2022-10-06 07:26:00,,0834.6,5.01,0.00,29.2,27.5,00.0,38.0,31.0,18.2,0000.0,0010.04,0005.29,0004.96
2022-10-06 07:27:00,,0834.6,5.01,0.00,29.2,27.5,00.0,38.0,31.0,18.3,0000.0,0009.65,0005.28,0004.96
2022-10-06 07:28:00,,0834.6,4.99,0.00,29.2,27.5,00.0,38.0,30.9,18.3,0000.0,0009.57,0005.28,0004.96
2022-10-06 07:29:00,,0834.6,5.02,0.00,29.2,27.5,00.0,38.0,30.9,18.3,0000.0,0009.51,0005.25,0004.95
2022-10-06 07:30:00,,0834.6,4.99,0.00,29.2,27.5,00.0,38.0,30.9,18.2,0000.0,0009.24,0005.20,0004.95
2022-10-06 07:31:00,,0834.6,5.01,0.00,29.2,27.5,00.0,38.0,30.9,18.3,0000.0,0009.20,0005.18,0004.93
2022-10-06 07:32:00,,0834.6,5.01,0.00,29.2,27.5,00.0,38.0,30.9,18.2,0000.0,0009.29,0005.19,0004.92
2022-10-06 07:33:00,,0834.6,4.99,0.00,29.2,27.5,00.0,38.0,30.9,18.2,0000.0,0009.30,0005.19,0004.94
2022-10-06 07:34:00,,0834.7,5.01,0.00,29.2,27.5,00.0,38.0,31.0,18.2,0000.0,0009.08,0005.16,0004.94
2022-10-06 07:35:00,,0834.6,4.99,0.00,29.2,27.6,00.0,38.0,31.0,18.2,0000.0,0008.51,0005.15,0004.94
2022-10-06 07:36:00,,0834.6,5.01,0.00,29.2,27.6,00.0,38.0,31.0,18.2,0000.0,0008.02,0005.16,0004.94
2022-10-06 07:37:00,,0834.7,4.99,0.00,29.2,27.6,00.0,38.0,31.0,18.2,0000.0,0008.08,0005.17,0004.95
2022-10-06 07:38:00,,0834.6,5.01,0.00,29.2,27.6,00.0,38.0,30.9,18.2,0000.0,0008.12,0005.19,0004.97
2022-10-06 07:39:00,,0834.6,4.99,0.00,29.2,27.5,00.0,38.0,30.9,18.2,0000.0,0008.45,0005.23,0005.01
2022-10-06 07:40:00,,0834.6,5.01,0.00,29.2,27.5,00.0,38.0,30.9,18.2,0000.0,0008.80,0005.28,0005.05
2022-10-06 07:41:00,,0834.6,5.00,0.00,29.2,27.5,00.0,38.0,30.9,18.2,0000.0,0008.93,0005.34,0005.09
2022-10-06 07:42:00,,0834.6,4.99,0.00,29.2,27.5,00.0,38.0,30.9,18.2,0000.0,0008.93,0005.39,0005.15
2022-10-06 07:43:00,,0834.6,5.00,0.00,29.2,27.5,00.0,38.0,30.9,18.2,0000.0,0008.91,0005.43,0005.18
2022-10-06 07:44:00,,0834.6,5.00,0.00,29.2,27.5,00.0,38.0,30.9,18.2,0000.0,0008.98,0005.47,0005.21
2022-10-06 07:45:00,,0834.6,5.01,0.00,29.2,27.5,00.0,38.0,30.9,18.2,0000.0,0009.06,0005.52,0005.25
2022-10-06 07:46:00,,0834.6,5.02,0.00,29.1,27.5,00.0,38.0,30.9,18.3,0000.0,0009.04,0005.55,0005.28
2022-10-06 07:47:00,,0834.7,4.99,0.00,29.2,27.5,00.0,38.0,30.9,18.2,0000.0,0009.52,0005.61,0005.32
2022-10-06 07:48:00,,0834.6,5.01,0.00,29.1,27.5,00.0,38.0,30.9,18.2,0000.0,0009.77,0005.65,0005.35
2022-10-06 07:49:00,,0834.7,5.00,0.00,29.1,27.5,00.0,38.0,30.9,18.2,0000.0,0009.85,0005.67,0005.38
2022-10-06 07:50:00,,0834.7,5.00,0.00,29.1,27.5,00.0,37.9,30.9,18.2,0000.0,0010.12,0005.70,0005.38
2022-10-06 07:51:00,,0834.7,5.01,0.00,29.1,27.5,00.0,37.9,30.9,18.2,0000.0,0009.77,0005.69,0005.39
2022-10-06 07:52:00,,0834.7,4.99,0.00,29.1,27.5,00.0,37.9,30.9,18.2,0000.0,0009.82,0005.72,0005.39
2022-10-06 07:53:00,,0834.7,5.01,0.00,29.1,27.4,00.0,37.9,30.9,18.2,0000.0,0010.24,0005.74,0005.39
2022-10-06 07:54:00,,0834.7,5.00,0.00,29.1,27.4,00.0,37.9,30.9,18.3,0000.0,0010.24,0005.74,0005.38
2022-10-06 07:55:00,,0834.7,5.00,0.00,29.1,27.4,00.0,37.9,30.9,18.2,0000.0,0010.25,0005.77,0005.38
2022-10-06 07:56:00,,0834.7,5.01,0.00,29.1,27.4,00.0,37.9,30.9,18.2,0000.0,0010.32,0005.78,0005.37
2022-10-06 07:57:00,,0834.7,5.00,0.00,29.1,27.4,00.0,37.9,30.8,18.3,0000.0,0010.43,0005.80,0005.38
2022-10-06 07:58:00,,0834.7,4.99,0.00,29.1,27.4,00.0,37.9,30.9,18.3,0000.0,0010.01,0005.80,0005.39
2022-10-06 07:59:00,,0834.7,5.01,0.00,29.1,27.4,00.0,37.9,30.9,18.3,0000.0,0009.71,0005.78,0005.39
